K4PAD Weather Reports


time (UTC)temp
C
wind
direction
speed
KPH
gust
KPH
rain 1hr
cm
rain 24hr
cm
rain mn
cm
humidity
%
barometer
mb
20260504231826 23 84 4.8 8.0 0.00 0.00 0.00 54 1016.8
20260504231323 23 89 4.8 9.7 0.00 0.00 0.00 53 1016.9
20260504230819 23 79 1.6 1.6 0.00 0.00 0.00 53 1016.8
20260504230317 24 86 3.2 4.8 0.00 0.00 0.00 52 1016.7
20260504225816 24 56 1.6 3.2 0.00 0.00 0.00 51 1016.9
20260504225312 25 112 1.6 1.6 0.00 0.00 0.00 51 1016.8
20260504224809 25 56 1.6 1.6 0.00 0.00 0.00 50 1016.6
20260504224306 25 49 3.2 3.2 0.00 0.00 0.00 48 1017.0
20260504223802 25 87 3.2 3.2 0.00 0.00 0.00 49 1016.8
20260504223258 25 62 1.6 1.6 0.00 0.00 0.00 48 1016.9
20260504222755 25 60 3.2 4.8 0.00 0.00 0.00 49 1016.7
20260504222252 25 94 0.0 1.6 0.00 0.00 0.00 48 1017.1
20260504221750 25 79 4.8 8.0 0.00 0.00 0.00 48 1016.8
20260504221247 25 77 3.2 3.2 0.00 0.00 0.00 47 1017.0
20260504220743 25 82 1.6 1.6 0.00 0.00 0.00 47 1016.8
20260504220240 25 122 4.8 8.0 0.00 0.00 0.00 46 1017.0
20260504215738 25 92 1.6 4.8 0.00 0.00 0.00 47 1016.9
20260504215234 25 89 0.0 1.6 0.00 0.00 0.00 46 1017.0
20260504214730 26 46 1.6 1.6 0.00 0.00 0.00 46 1017.0
20260504214226 26 90 3.2 3.2 0.00 0.00 0.00 42 1016.8
20260504213723 26 82 3.2 4.8 0.00 0.00 0.00 42 1016.9
20260504213220 26 78 6.4 9.7 0.00 0.00 0.00 43 1016.8
20260504212717 26 53 1.6 1.6 0.00 0.00 0.00 43 1016.7
20260504212214 26 200 1.6 3.2 0.00 0.00 0.00 41 1016.9
20260504211711 26 124 1.6 1.6 0.00 0.00 0.00 43 1017.0
20260504211207 26 109 3.2 8.0 0.00 0.00 0.00 41 1017.3
20260504210704 26 51 1.6 1.6 0.00 0.00 0.00 40 1016.9
20260504210201 26 105 3.2 3.2 0.00 0.00 0.00 41 1017.0
20260504205658 26 81 0.0 1.6 0.00 0.00 0.00 41 1017.0
20260504205155 27 80 3.2 4.8 0.00 0.00 0.00 40 1017.0
20260504204654 27 82 1.6 1.6 0.00 0.00 0.00 38 1017.2
20260504204153 26 100 1.6 1.6 0.00 0.00 0.00 40 1017.4
20260504203651 26 93 0.0 1.6 0.00 0.00 0.00 41 1017.3
20260504203149 26 155 3.2 3.2 0.00 0.00 0.00 39 1017.2
20260504202649 26 95 1.6 3.2 0.00 0.00 0.00 40 1017.2
20260504202146 26 78 1.6 3.2 0.00 0.00 0.00 40 1017.2
20260504201643 26 24 1.6 1.6 0.00 0.00 0.00 41 1017.3
20260504201141 26 54 1.6 1.6 0.00 0.00 0.00 40 1017.3
20260504200637 26 81 0.0 1.6 0.00 0.00 0.00 39 1017.3
20260504200134 27 18 3.2 4.8 0.00 0.00 0.00 37 1017.3
20260504195630 27 222 4.8 4.8 0.00 0.00 0.00 35 1017.5
20260504195126 27 166 1.6 1.6 0.00 0.00 0.00 33 1017.4
20260504194623 27 60 1.6 1.6 0.00 0.00 0.00 33 1017.6
20260504194119 27 151 3.2 3.2 0.00 0.00 0.00 34 1017.6
20260504193615 27 269 4.8 4.8 0.00 0.00 0.00 35 1017.6
20260504193114 27 68 3.2 3.2 0.00 0.00 0.00 35 1017.8
20260504192612 27 50 0.0 1.6 0.00 0.00 0.00 35 1018.0
20260504192110 27 80 1.6 3.2 0.00 0.00 0.00 35 1017.8
20260504191608 27 136 3.2 3.2 0.00 0.00 0.00 34 1017.9
20260504191104 26 58 4.8 4.8 0.00 0.00 0.00 36 1017.9
20260504190600 26 65 0.0 0.0 0.00 0.00 0.00 36 1017.9
20260504190056 26 292 1.6 3.2 0.00 0.00 0.00 34 1018.2
20260504185553 26 46 0.0 1.6 0.00 0.00 0.00 38 1018.3
20260504185050 26 89 4.8 4.8 0.00 0.00 0.00 35 1018.4
20260504184545 26 49 3.2 3.2 0.00 0.00 0.00 34 1018.2
20260504184041 26 86 6.4 9.7 0.00 0.00 0.00 36 1018.3
20260504183538 26 120 3.2 3.2 0.00 0.00 0.00 34 1018.3
20260504183036 26 80 1.6 1.6 0.00 0.00 0.00 33 1018.7
20260504182533 26 64 4.8 8.0 0.00 0.00 0.00 33 1018.7
20260504182030 26 85 4.8 4.8 0.00 0.00 0.00 34 1018.7
20260504181527 26 17 1.6 1.6 0.00 0.00 0.00 33 1018.6
20260504181025 26 49 6.4 8.0 0.00 0.00 0.00 34 1018.6
20260504180524 26 32 4.8 4.8 0.00 0.00 0.00 33 1018.7
20260504180023 26 89 4.8 4.8 0.00 0.00 0.00 33 1018.7
20260504175519 26 101 1.6 3.2 0.00 0.00 0.00 33 1018.5
20260504175016 26 118 0.0 0.0 0.00 0.00 0.00 32 1018.7
20260504174514 26 160 1.6 1.6 0.00 0.00 0.00 32 1018.9
20260504174011 26 138 1.6 3.2 0.00 0.00 0.00 31 1018.9
20260504173508 26 107 3.2 3.2 0.00 0.00 0.00 32 1019.0
20260504173005 26 54 3.2 8.0 0.00 0.00 0.00 34 1019.0
20260504172501 26 50 1.6 1.6 0.00 0.00 0.00 32 1019.0
20260504171957 26 74 3.2 4.8 0.00 0.00 0.00 32 1019.0
20260504171454 26 206 0.0 1.6 0.00 0.00 0.00 32 1019.2
20260504170951 26 204 1.6 1.6 0.00 0.00 0.00 31 1019.0
20260504170447 26 66 3.2 4.8 0.00 0.00 0.00 32 1019.4
20260504160407 25 66 0.0 1.6 0.00 0.00 0.00 37 1019.7
20260504150831 24 78 1.6 3.2 0.00 0.00 0.00 37 1019.6
20260504150328 24 107 1.6 1.6 0.00 0.00 0.00 39 1020.0
20260504141258 23 65 1.6 1.6 0.00 0.00 0.00 41 1019.8
20260504140754 23 95 0.0 0.0 0.00 0.00 0.00 44 1019.8
20260504140250 23 67 0.0 0.0 0.00 0.00 0.00 43 1020.1
20260504130719 21 89 0.0 0.0 0.00 0.00 0.00 67 1019.9
20260504130215 21 103 3.2 3.2 0.00 0.00 0.00 66 1020.0
20260504120139 13 53 0.0 0.0 0.00 0.00 0.00 99 1019.6
20260504110606 11 42 0.0 0.0 0.00 0.00 0.00 98 1019.0
20260504100528 11 45 0.0 0.0 0.00 0.00 0.00 98 1018.8
20260504081916 11 45 0.0 0.0 0.00 0.00 0.00 96 1018.9
20260504081412 11 50 0.0 0.0 0.00 0.00 0.00 96 1018.8
20260504080908 12 50 0.0 0.0 0.00 0.00 0.00 96 1019.0
20260504080405 12 44 0.0 0.0 0.00 0.00 0.00 96 1018.7
20260504070332 12 41 0.0 0.0 0.00 0.00 0.00 95 1019.0
20260504050715 13 41 0.0 0.0 0.00 0.00 0.00 92 1020.1
20260504050207 13 43 0.0 0.0 0.00 0.00 0.00 92 1020.1
20260504045704 13 45 0.0 0.0 0.00 0.00 0.00 91 1020.0
20260504045203 13 45 0.0 0.0 0.00 0.00 0.00 91 1020.2
20260504044701 13 43 0.0 0.0 0.00 0.00 0.00 91 1020.1
20260504044158 13 47 0.0 0.0 0.00 0.00 0.00 91 1020.4
20260504043655 13 46 0.0 0.0 0.00 0.00 0.00 91 1020.2
20260504043152 13 50 0.0 0.0 0.00 0.00 0.00 91 1020.1
20260504042650 13 62 0.0 0.0 0.00 0.00 0.00 91 1020.3
20260504042146 13 52 0.0 0.0 0.00 0.00 0.00 90 1020.3
20260504041642 13 51 0.0 0.0 0.00 0.00 0.00 90 1020.1
20260504041138 13 49 0.0 0.0 0.00 0.00 0.00 90 1020.1
20260504040635 13 52 0.0 0.0 0.00 0.00 0.00 89 1020.2
20260504040132 13 52 0.0 0.0 0.00 0.00 0.00 89 1020.1
20260504035629 13 48 0.0 0.0 0.00 0.00 0.00 89 1020.3
20260504035125 14 48 0.0 0.0 0.00 0.00 0.00 89 1020.2
20260504034624 14 55 0.0 0.0 0.00 0.00 0.00 89 1020.2
20260504034120 14 51 0.0 0.0 0.00 0.00 0.00 89 1020.3
20260504033618 13 54 0.0 0.0 0.00 0.00 0.00 88 1020.2
20260504033115 14 54 0.0 0.0 0.00 0.00 0.00 87 1020.0
20260504032612 14 54 0.0 0.0 0.00 0.00 0.00 87 1020.0
20260504032109 14 54 0.0 0.0 0.00 0.00 0.00 86 1020.0
20260504031606 14 62 0.0 0.0 0.00 0.00 0.00 86 1020.2
20260504031102 14 56 0.0 0.0 0.00 0.00 0.00 85 1020.0
20260504030559 15 61 0.0 0.0 0.00 0.00 0.00 85 1020.2
20260504030055 15 61 0.0 0.0 0.00 0.00 0.00 84 1020.2
20260504025553 15 61 0.0 0.0 0.00 0.00 0.00 84 1020.3
20260504025049 15 62 0.0 0.0 0.00 0.00 0.00 83 1020.2
20260504024547 15 62 0.0 0.0 0.00 0.00 0.00 83 1020.1
20260504024043 15 63 0.0 0.0 0.00 0.00 0.00 82 1020.1
20260504023540 15 64 0.0 0.0 0.00 0.00 0.00 81 1020.2
20260504023036 15 63 0.0 0.0 0.00 0.00 0.00 81 1020.2
20260504022532 15 58 0.0 0.0 0.00 0.00 0.00 79 1020.0
20260504022028 15 58 0.0 0.0 0.00 0.00 0.00 77 1019.8
20260504021526 16 58 0.0 0.0 0.00 0.00 0.00 76 1020.0
20260504021023 16 58 0.0 0.0 0.00 0.00 0.00 76 1019.8
20260504020520 16 56 0.0 0.0 0.00 0.00 0.00 75 1019.9
20260504020016 16 65 0.0 0.0 0.00 0.00 0.00 74 1019.7
20260504015513 16 63 0.0 0.0 0.00 0.00 0.00 73 1019.5
20260504015009 17 59 0.0 0.0 0.00 0.00 0.00 71 1019.4
20260504014504 17 69 0.0 0.0 0.00 0.00 0.00 70 1019.4
20260504014002 17 65 0.0 0.0 0.00 0.00 0.00 69 1019.6
20260504013500 17 67 0.0 0.0 0.00 0.00 0.00 68 1019.4
20260504012955 17 61 0.0 0.0 0.00 0.00 0.00 67 1019.3
20260504012454 17 60 0.0 0.0 0.00 0.00 0.00 66 1019.2
20260504011952 17 76 1.6 1.6 0.00 0.00 0.00 65 1019.1
20260504011447 18 69 0.0 0.0 0.00 0.00 0.00 64 1018.8
20260504010944 18 76 1.6 1.6 0.00 0.00 0.00 63 1019.0
20260504010440 18 67 0.0 1.6 0.00 0.00 0.00 61 1018.8
20260504005936 18 86 0.0 1.6 0.00 0.00 0.00 60 1018.9
20260504005433 18 101 1.6 1.6 0.00 0.00 0.00 59 1019.0
20260504004930 18 96 1.6 1.6 0.00 0.00 0.00 59 1018.8
20260504004428 18 92 1.6 1.6 0.00 0.00 0.00 58 1018.9
20260504003925 19 94 1.6 1.6 0.00 0.00 0.00 56 1018.8
20260504003421 19 85 1.6 3.2 0.00 0.00 0.00 56 1018.7
20260504002918 19 83 1.6 1.6 0.00 0.00 0.00 54 1018.7
20260504002415 19 75 0.0 0.0 0.00 0.00 0.00 53 1018.7
20260504001912 20 82 3.2 3.2 0.00 0.00 0.00 52 1018.6
20260504001410 20 84 1.6 1.6 0.00 0.00 0.00 51 1018.8
20260504000906 20 83 1.6 1.6 0.00 0.00 0.00 49 1018.7
20260504000403 20 78 1.6 3.2 0.00 0.00 0.00 49 1018.7
20260503235901 20 97 4.8 4.8 0.00 0.00 0.00 48 1018.5
20260503235359 20 72 1.6 1.6 0.00 0.00 0.00 47 1018.6
20260503234855 20 87 3.2 3.2 0.00 0.00 0.00 47 1018.9
20260503234353 21 69 0.0 1.6 0.00 0.00 0.00 47 1018.8
20260503233851 21 70 1.6 1.6 0.00 0.00 0.00 47 1018.7
20260503233347 21 89 1.6 1.6 0.00 0.00 0.00 46 1018.8
20260503232843 21 57 0.0 0.0 0.00 0.00 0.00 47 1018.8
20260503232341 21 82 1.6 1.6 0.00 0.00 0.00 46 1019.0